Flag for Germany Weather past 2 weeks in Giessen, Hesse, Germany

Now
47 °F

Light rain. Low clouds.


Feels Like: 43 °F
Forecast: 36 / 52 °F
Wind: 7 mph from Northeast

Location: Giessen

Current Time: Apr 27, 2015 at 6:00:07 PM

Latest Report: Apr 27, 2015 at 5:00 PM


Visibility: 6 mi

Pressure: 29.70 "Hg

Humidity: 91%

Dew point: 44 °F

Location of GiessenLocation

Historic Weather in Giessen — Graph

°F

Giessen temperature yesterday

Maximum temperature yesterday: 67 °F (at 5:00 PM)
Minimum temperature yesterday: 45 °F (at 2:00 AM)
Average temperature yesterday: 56 °F

Past Weeks' High & Low Weather Summary

 TemperatureHumidityPressure
High74 °F (Apr 15, 5:00 PM)98% (Apr 26, 2:00 AM)30.47 "Hg (Apr 26, 2:00 AM)
Low31 °F (Apr 19, 6:00 AM)21% (Apr 21, 5:00 PM)29.57 "Hg (Apr 27, 6:00 AM)
Average52 °F63%30.11 "Hg
* Reported Apr 12 5:00 PM — Apr 27 5:00 PM, Giessen, Weather by CustomWeather, © 2015

Note: Actual official high and low records may vary slightly from our data, if they occured in-between our weather recording intervals... More about our weather records

Advertising

Giessen weather history for previous 24 hours

 ConditionsComfort  
Time TempWeatherWind HumidityBarometerVisibility
5:00 PM
Mon, Apr 27
47 °FLight rain. Low clouds.7 mph91%29.70 "Hg6 mi
4:00 PM50 °FLight rain. Low clouds.6 mph93%29.69 "Hg7 mi
3:00 PM51 °FLight rain. Overcast.6 mph92%29.68 "Hg6 mi
2:00 PM52 °FLight rain. Overcast.5 mph88%29.67 "Hg22 mi
1:00 PM53 °FLight rain. Low clouds.6 mph86%29.66 "Hg8 mi
12:00 PM54 °FLight rain. Overcast.6 mph81%29.65 "Hg25 mi
11:00 AM54 °FOvercast.5 mph89%29.64 "Hg43 mi
10:00 AM53 °FOvercast.5 mph89%29.62 "Hg43 mi
9:00 AM53 °FLow clouds.3 mph96%29.60 "Hg31 mi
8:00 AM53 °FDrizzle. Low clouds.2 mph97%29.59 "Hg3 mi
7:00 AM52 °FDrizzle. Low clouds.No wind97%29.58 "Hg3 mi
6:00 AM52 °FLight rain. Low clouds.1 mph97%29.57 "Hg5 mi
5:00 AM51 °FFog.No wind97%29.58 "Hg2 mi
4:00 AM52 °FPassing clouds.3 mph97%29.58 "Hg5 mi
3:00 AM53 °FRain. Low clouds.3 mph97%29.61 "Hg2 mi
2:00 AM54 °FLight rain. Low clouds.3 mph96%29.61 "Hg4 mi
1:00 AM55 °FLight rain. Low clouds.1 mph94%29.64 "Hg4 mi
12:00 AM56 °FLight rain. Low clouds.2 mph86%29.63 "Hg7 mi
11:00 PM
Sun, Apr 26
56 °FOvercast.2 mph88%29.65 "Hg19 mi
10:00 PM58 °FOvercast.2 mph81%29.66 "Hg25 mi
9:00 PM61 °FOvercast.1 mph72%29.66 "Hg37 mi
8:00 PM62 °FOvercast.2 mph70%29.65 "Hg31 mi
7:00 PM64 °FOvercast.3 mph68%29.64 "Hg31 mi
6:00 PM66 °FOvercast.6 mph49%29.65 "Hg43 mi
Weather by CustomWeather, © 2015

See weather overviewHow to use our weather pages